This is the latest recevied weather packets stored in our database for station/object 9W2GND-1. If no packets are shown the sender has not sent any weather packets the latest 10 day(s).
| Time | Temp. | Humidity | Pressure | Rain* | Wind** | Luminosity | Snow |
|---|---|---|---|---|---|---|---|
| 1778404125 | 32.78° C | 60% | 1008.6 hPa | - | - | - | - |
| 1778403224 | 32.78° C | 61% | 1008.5 hPa | - | - | - | - |
| 1778402324 | 32.78° C | 60% | 1008.4 hPa | - | - | - | - |
| 1778401500 | 32.78° C | 61% | 1008.2 hPa | - | - | - | - |
| 1778401424 | 32.78° C | 61% | 1008.2 hPa | - | - | - | - |
| 1778400524 | 33.33° C | 61% | 1008.6 hPa | - | - | - | - |
| 1778399624 | 33.33° C | 60% | 1008.9 hPa | - | - | - | - |
| 1778398724 | 33.33° C | 61% | 1009 hPa | - | - | - | - |
| 1778397824 | 33.33° C | 61% | 1009.2 hPa | - | - | - | - |
| 1778396939 | 33.89° C | 58% | 1009.3 hPa | - | - | - | - |
| 1778396024 | 33.89° C | 56% | 1009.7 hPa | - | - | - | - |
| 1778395124 | 34.44° C | 54% | 1010.1 hPa | - | - | - | - |
| 1778394224 | 33.89° C | 55% | 1010.5 hPa | - | - | - | - |
| 1778393323 | 33.89° C | 55% | 1010.6 hPa | - | - | - | - |
| 1778392423 | 33.33° C | 56% | 1010.8 hPa | - | - | - | - |
| 1778391523 | 33.89° C | 56% | 1010.9 hPa | - | - | - | - |
| 1778390657 | 33.33° C | 55% | 1011 hPa | - | - | - | - |
| 1778390623 | 33.33° C | 55% | 1011 hPa | - | - | - | - |
| 1778389723 | 33.33° C | 53% | 1011.3 hPa | - | - | - | - |
| 1778388823 | 33.89° C | 54% | 1011.6 hPa | - | - | - | - |
| 1778387923 | 33.33° C | 55% | 1012 hPa | - | - | - | - |
| 1778387023 | 33.33° C | 58% | 1012.2 hPa | - | - | - | - |
| 1778386123 | 32.78° C | 60% | 1012.5 hPa | - | - | - | - |
| 1778385223 | 31.67° C | 62% | 1012.7 hPa | - | - | - | - |
| 1778384323 | 31.67° C | 62% | 1012.7 hPa | - | - | - | - |
* Rain since midnight (hover to see other rain measurements)
** Current wind speed in m/s (hover to see current wind gust speed)